RYR40AU EIDW-EGKK

Flight info

Callsign RYR40AU
Flight time 1h 10m
Altitude 33000
Route ENDEQ3J ENDEQ Q36 EPOXI L15 KEPAD L151 DISIT
Aircraft B738/M-SDE2E3FGHIRWXY/LB1

Departure

Time 2026-05-07 16:15
Airport Dublin Airport (EIDW)

Arrival

Time 2026-05-07 17:25
Airport London Gatwick Airport (EGKK)
Time Latitude Longitude Altitude Speed Heading
2026-05-07 15:39 53.42798 -6.24886 210 ft 0 kts 86°
2026-05-07 16:01 53.42798 -6.24889 216 ft 2 kts 86°
2026-05-07 16:02 53.42796 -6.24928 210 ft 3 kts 83°
2026-05-07 16:02 53.42793 -6.24968 211 ft 3 kts 81°
2026-05-07 16:02 53.42790 -6.25008 214 ft 3 kts 91°
2026-05-07 16:02 53.42793 -6.25040 210 ft 4 kts 149°
2026-05-07 16:03 53.42812 -6.25045 210 ft 3 kts 192°
2026-05-07 16:03 53.42832 -6.25029 214 ft 3 kts 231°
2026-05-07 16:03 53.42845 -6.24999 212 ft 1 kts 227°
2026-05-07 16:03 53.42861 -6.24972 210 ft 3 kts 224°
2026-05-07 16:04 53.42877 -6.24946 210 ft 1 kts 226°
2026-05-07 16:04 53.42877 -6.24945 210 ft 0 kts 226°
2026-05-07 16:07 53.42874 -6.24950 213 ft 2 kts 226°
2026-05-07 16:07 53.42857 -6.24979 211 ft 5 kts 226°
2026-05-07 16:07 53.42822 -6.25033 217 ft 8 kts 213°
2026-05-07 16:08 53.42794 -6.25107 210 ft 8 kts 269°
2026-05-07 16:08 53.42797 -6.25197 219 ft 8 kts 278°
2026-05-07 16:08 53.42826 -6.25264 215 ft 7 kts 332°
2026-05-07 16:08 53.42873 -6.25298 210 ft 7 kts 341°
2026-05-07 16:09 53.42919 -6.25325 210 ft 7 kts 329°
2026-05-07 16:09 53.42962 -6.25364 210 ft 7 kts 333°
2026-05-07 16:09 53.43007 -6.25397 214 ft 8 kts 337°
2026-05-07 16:09 53.43067 -6.25441 213 ft 11 kts 336°
2026-05-07 16:10 53.43149 -6.25500 213 ft 15 kts 337°
2026-05-07 16:10 53.43251 -6.25573 210 ft 17 kts 337°
2026-05-07 16:10 53.43369 -6.25648 213 ft 18 kts
2026-05-07 16:10 53.43402 -6.25473 210 ft 18 kts 94°
2026-05-07 16:11 53.43391 -6.25272 210 ft 17 kts 95°
2026-05-07 16:11 53.43380 -6.25078 213 ft 16 kts 96°
2026-05-07 16:11 53.43370 -6.24891 210 ft 16 kts 95°
2026-05-07 16:11 53.43360 -6.24712 211 ft 15 kts 95°
2026-05-07 16:12 53.43368 -6.24585 213 ft 10 kts 52°
2026-05-07 16:12 53.43432 -6.24553 211 ft 10 kts
2026-05-07 16:12 53.43498 -6.24550 212 ft 9 kts 355°
2026-05-07 16:12 53.43529 -6.24627 213 ft 9 kts 269°
2026-05-07 16:13 53.43529 -6.24643 213 ft 0 kts 273°
2026-05-07 16:14 53.43529 -6.24657 222 ft 10 kts 274°
2026-05-07 16:14 53.43557 -6.25183 210 ft 81 kts 275°
2026-05-07 16:14 53.43626 -6.26452 212 ft 138 kts 275°
2026-05-07 16:14 53.43698 -6.28270 424 ft 166 kts 273°
2026-05-07 16:15 53.43783 -6.30316 873 ft 184 kts 275°
2026-05-07 16:15 53.44066 -6.32492 1404 ft 198 kts 288°
2026-05-07 16:15 53.44706 -6.34485 2197 ft 190 kts 307°
2026-05-07 16:15 53.45671 -6.35900 3021 ft 184 kts 341°
2026-05-07 16:16 53.46896 -6.35767 3715 ft 181 kts 25°
2026-05-07 16:16 53.48173 -6.35256 4007 ft 203 kts 360°
2026-05-07 16:16 53.49660 -6.35206 4212 ft 224 kts
2026-05-07 16:16 53.51232 -6.34633 4354 ft 243 kts 28°
2026-05-07 16:17 53.52412 -6.32648 4671 ft 250 kts 65°
2026-05-07 16:17 53.52709 -6.29809 5152 ft 249 kts 92°
2026-05-07 16:17 53.52637 -6.26856 5479 ft 262 kts 94°
2026-05-07 16:17 53.52547 -6.23702 5940 ft 274 kts 94°
2026-05-07 16:18 53.52468 -6.20491 6683 ft 276 kts 93°
2026-05-07 16:18 53.52404 -6.17248 7401 ft 280 kts 93°
2026-05-07 16:18 53.52344 -6.13950 8112 ft 284 kts 93°
2026-05-07 16:18 53.52286 -6.10610 8729 ft 288 kts 93°
2026-05-07 16:19 53.52214 -6.07228 8921 ft 291 kts 96°
2026-05-07 16:19 53.51851 -6.03907 9319 ft 296 kts 105°
2026-05-07 16:19 53.51334 -6.00580 10202 ft 294 kts 106°
2026-05-07 16:19 53.50798 -5.97176 10586 ft 313 kts 106°
2026-05-07 16:20 53.50241 -5.93506 10845 ft 333 kts 105°
2026-05-07 16:20 53.49680 -5.89682 11441 ft 340 kts 105°
2026-05-07 16:20 53.49119 -5.85808 12201 ft 343 kts 105°
2026-05-07 16:20 53.48571 -5.81889 12966 ft 346 kts 104°
2026-05-07 16:21 53.48069 -5.77909 13698 ft 351 kts 103°
2026-05-07 16:21 53.47585 -5.73931 14441 ft 354 kts 103°
2026-05-07 16:21 53.47090 -5.69864 15162 ft 358 kts 103°
2026-05-07 16:21 53.46583 -5.65748 15877 ft 362 kts 103°
2026-05-07 16:22 53.46065 -5.61598 16591 ft 365 kts 103°
2026-05-07 16:22 53.45537 -5.57397 17268 ft 370 kts 103°
2026-05-07 16:22 53.44999 -5.53151 17948 ft 374 kts 103°
2026-05-07 16:22 53.44491 -5.48858 18599 ft 378 kts 99°
2026-05-07 16:23 53.44276 -5.44437 19248 ft 382 kts 94°
2026-05-07 16:23 53.44205 -5.39958 19881 ft 386 kts 92°
2026-05-07 16:23 53.44153 -5.35504 20490 ft 389 kts 92°
2026-05-07 16:23 53.44077 -5.30958 21088 ft 393 kts 93°
2026-05-07 16:24 53.43971 -5.26361 21676 ft 395 kts 94°
2026-05-07 16:24 53.43845 -5.21724 22213 ft 400 kts 94°
2026-05-07 16:24 53.43712 -5.17060 22753 ft 403 kts 94°
2026-05-07 16:24 53.43575 -5.12339 23300 ft 406 kts 94°
2026-05-07 16:25 53.43438 -5.07600 23828 ft 408 kts 94°
2026-05-07 16:25 53.43300 -5.02836 24308 ft 411 kts 94°
2026-05-07 16:25 53.43159 -4.98021 24801 ft 414 kts 94°
2026-05-07 16:25 53.43018 -4.93253 25284 ft 417 kts 94°
2026-05-07 16:26 53.42870 -4.88377 25767 ft 419 kts 94°
2026-05-07 16:26 53.42718 -4.83499 26232 ft 421 kts 94°
2026-05-07 16:26 53.42553 -4.78582 26664 ft 423 kts 95°
2026-05-07 16:26 53.42382 -4.73640 27104 ft 426 kts 95°
2026-05-07 16:27 53.42207 -4.68676 27545 ft 428 kts 95°
2026-05-07 16:27 53.42030 -4.63685 27964 ft 429 kts 95°
2026-05-07 16:27 53.41853 -4.58691 28461 ft 428 kts 95°
2026-05-07 16:27 53.41676 -4.53728 29047 ft 425 kts 95°
2026-05-07 16:28 53.41499 -4.48862 29622 ft 422 kts 95°
2026-05-07 16:28 53.41319 -4.43963 30115 ft 421 kts 95°
2026-05-07 16:28 53.41138 -4.39081 30562 ft 420 kts 95°
2026-05-07 16:28 53.40956 -4.34197 31001 ft 419 kts 95°
2026-05-07 16:29 53.40772 -4.29341 31451 ft 417 kts 95°
2026-05-07 16:29 53.40585 -4.24495 31911 ft 416 kts 95°
2026-05-07 16:29 53.40398 -4.19668 32350 ft 415 kts 95°
2026-05-07 16:29 53.40209 -4.14847 32772 ft 413 kts 95°
2026-05-07 16:30 53.40022 -4.10106 32985 ft 416 kts 95°
2026-05-07 16:30 53.39633 -4.00391 32985 ft 417 kts 95°
2026-05-07 16:31 53.39249 -3.90789 32986 ft 411 kts 95°
2026-05-07 16:31 53.38875 -3.81226 32997 ft 412 kts 95°
2026-05-07 16:32 53.38492 -3.71629 32997 ft 414 kts 95°
2026-05-07 16:32 53.37636 -3.62205 32996 ft 412 kts 109°
2026-05-07 16:33 53.35379 -3.53400 32987 ft 411 kts 115°
2026-05-07 16:33 53.32854 -3.44829 32987 ft 411 kts 124°
2026-05-07 16:34 53.29196 -3.37540 32976 ft 409 kts 133°
2026-05-07 16:34 53.25406 -3.30520 32998 ft 410 kts 133°
2026-05-07 16:35 53.21629 -3.23413 32996 ft 410 kts 132°
2026-05-07 16:35 53.17848 -3.16287 32997 ft 410 kts 132°
2026-05-07 16:36 53.14070 -3.09194 33000 ft 409 kts 132°
2026-05-07 16:36 53.10293 -3.02118 32987 ft 408 kts 133°
2026-05-07 16:37 53.06542 -2.95112 33000 ft 409 kts 132°
2026-05-07 16:37 53.02757 -2.88068 33000 ft 409 kts 133°
2026-05-07 16:38 52.98968 -2.81032 33003 ft 409 kts 133°
2026-05-07 16:38 52.95171 -2.74001 33007 ft 409 kts 133°
2026-05-07 16:39 52.91397 -2.67023 33018 ft 410 kts 133°
2026-05-07 16:39 52.87599 -2.60020 33006 ft 403 kts 133°
2026-05-07 16:40 52.83911 -2.53232 32968 ft 389 kts 133°
2026-05-07 16:40 52.82108 -2.49929 32760 ft 384 kts 134°
2026-05-07 16:40 52.80177 -2.46909 32418 ft 381 kts 144°
2026-05-07 16:40 52.77995 -2.44455 32061 ft 378 kts 147°
2026-05-07 16:41 52.75793 -2.42098 31684 ft 376 kts 148°
2026-05-07 16:41 52.73604 -2.39753 31316 ft 374 kts 147°
2026-05-07 16:41 52.71463 -2.37435 30947 ft 373 kts 147°
2026-05-07 16:41 52.69306 -2.35083 30575 ft 371 kts 147°
2026-05-07 16:42 52.67158 -2.32735 30205 ft 370 kts 147°
2026-05-07 16:42 52.65021 -2.30393 29826 ft 368 kts 147°
2026-05-07 16:42 52.62889 -2.28050 29459 ft 367 kts 147°
2026-05-07 16:42 52.60770 -2.25718 29084 ft 366 kts 147°
2026-05-07 16:43 52.58662 -2.23400 28713 ft 365 kts 147°
2026-05-07 16:43 52.56556 -2.21087 28336 ft 363 kts 147°
2026-05-07 16:43 52.54489 -2.18820 27962 ft 362 kts 147°
2026-05-07 16:43 52.52367 -2.16497 27273 ft 370 kts 147°
2026-05-07 16:44 52.50236 -2.14166 26845 ft 369 kts 147°
2026-05-07 16:44 52.48106 -2.11838 26475 ft 366 kts 147°
2026-05-07 16:44 52.45991 -2.09528 26105 ft 365 kts 147°
2026-05-07 16:44 52.43883 -2.07230 25751 ft 362 kts 147°
2026-05-07 16:45 52.41790 -2.04953 25384 ft 360 kts 148°
2026-05-07 16:45 52.39712 -2.02693 25033 ft 358 kts 148°
2026-05-07 16:45 52.37672 -2.00474 24685 ft 356 kts 148°
2026-05-07 16:45 52.35619 -1.98245 24336 ft 353 kts 148°
2026-05-07 16:46 52.33578 -1.96033 23990 ft 351 kts 148°
2026-05-07 16:46 52.31547 -1.93833 23651 ft 349 kts 148°
2026-05-07 16:46 52.29529 -1.91650 23298 ft 347 kts 148°
2026-05-07 16:46 52.27526 -1.89487 22957 ft 345 kts 148°
2026-05-07 16:47 52.25528 -1.87334 22613 ft 343 kts 148°
2026-05-07 16:47 52.23541 -1.85208 22270 ft 341 kts 148°
2026-05-07 16:47 52.21559 -1.83094 21936 ft 340 kts 148°
2026-05-07 16:47 52.19586 -1.80990 21599 ft 338 kts 148°
2026-05-07 16:48 52.17650 -1.78926 21263 ft 336 kts 148°
2026-05-07 16:48 52.15701 -1.76848 20927 ft 334 kts 148°
2026-05-07 16:48 52.13761 -1.74781 20593 ft 332 kts 148°
2026-05-07 16:48 52.11834 -1.72731 20259 ft 330 kts 148°
2026-05-07 16:49 52.09918 -1.70697 19939 ft 328 kts 148°
2026-05-07 16:49 52.08018 -1.68680 19649 ft 325 kts 148°
2026-05-07 16:49 52.06136 -1.66682 19363 ft 322 kts 148°
2026-05-07 16:49 52.04270 -1.64703 19090 ft 320 kts 148°
2026-05-07 16:50 52.02436 -1.62759 18829 ft 319 kts 148°
2026-05-07 16:50 52.00581 -1.60795 18540 ft 318 kts 148°
2026-05-07 16:50 51.98727 -1.58844 18264 ft 318 kts 148°
2026-05-07 16:50 51.96861 -1.56911 17981 ft 318 kts 148°
2026-05-07 16:51 51.95030 -1.54885 17707 ft 318 kts 147°
2026-05-07 16:51 51.93186 -1.52918 17424 ft 316 kts 148°
2026-05-07 16:51 51.91342 -1.50993 17138 ft 315 kts 148°
2026-05-07 16:51 51.89503 -1.49071 16858 ft 314 kts 148°
2026-05-07 16:52 51.87672 -1.47160 16587 ft 312 kts 148°
2026-05-07 16:52 51.85849 -1.45256 16311 ft 311 kts 148°
2026-05-07 16:52 51.84063 -1.43388 16051 ft 309 kts 148°
2026-05-07 16:52 51.82264 -1.41502 15769 ft 307 kts 148°
2026-05-07 16:53 51.80478 -1.39632 15501 ft 305 kts 148°
2026-05-07 16:53 51.78698 -1.37770 15234 ft 304 kts 148°
2026-05-07 16:53 51.76935 -1.35925 15070 ft 301 kts 148°
2026-05-07 16:53 51.75176 -1.34087 15029 ft 300 kts 148°
2026-05-07 16:54 51.73445 -1.32281 15008 ft 290 kts 148°
2026-05-07 16:54 51.71792 -1.30555 14999 ft 277 kts 148°
2026-05-07 16:54 51.70206 -1.28902 14998 ft 265 kts 148°
2026-05-07 16:54 51.68693 -1.27326 15000 ft 253 kts 148°
2026-05-07 16:55 51.67258 -1.25832 15012 ft 245 kts 148°
2026-05-07 16:55 51.65830 -1.24348 15020 ft 246 kts 148°
2026-05-07 16:55 51.64374 -1.22838 15034 ft 253 kts 148°
2026-05-07 16:55 51.62879 -1.21287 15035 ft 257 kts 148°
2026-05-07 16:56 51.61379 -1.19733 15025 ft 255 kts 148°
2026-05-07 16:56 51.59895 -1.18193 15012 ft 254 kts 148°
2026-05-07 16:56 51.56791 -1.14979 15055 ft 289 kts 148°
2026-05-07 16:57 51.55033 -1.13164 15030 ft 306 kts 148°
2026-05-07 16:57 51.53233 -1.11304 15024 ft 309 kts 148°
2026-05-07 16:57 51.51428 -1.09440 15015 ft 307 kts 148°
2026-05-07 16:57 51.49637 -1.07591 15017 ft 306 kts 148°
2026-05-07 16:58 51.47846 -1.05746 15017 ft 305 kts 148°
2026-05-07 16:58 51.46083 -1.03931 15019 ft 305 kts 148°
2026-05-07 16:58 51.44301 -1.02096 15025 ft 304 kts 148°
2026-05-07 16:58 51.42520 -1.00265 15029 ft 305 kts 148°
2026-05-07 16:59 51.40732 -0.98431 15034 ft 305 kts 148°
2026-05-07 16:59 51.38945 -0.96599 15036 ft 305 kts 148°
2026-05-07 16:59 51.37152 -0.94762 15037 ft 306 kts 148°
2026-05-07 16:59 51.35360 -0.92927 15043 ft 306 kts 148°
2026-05-07 17:00 51.33564 -0.91091 15049 ft 307 kts 148°
2026-05-07 17:00 51.31788 -0.89275 15047 ft 307 kts 148°
2026-05-07 17:00 51.29989 -0.87439 15050 ft 307 kts 148°
2026-05-07 17:00 51.28184 -0.85599 15049 ft 308 kts 148°
2026-05-07 17:01 51.26380 -0.83761 15048 ft 308 kts 148°
2026-05-07 17:01 51.24591 -0.81939 14929 ft 304 kts 148°
2026-05-07 17:01 51.22796 -0.80114 14589 ft 306 kts 148°
2026-05-07 17:01 51.21013 -0.78302 14400 ft 300 kts 148°
2026-05-07 17:02 51.19268 -0.76530 14111 ft 297 kts 148°
2026-05-07 17:02 51.17522 -0.74760 13801 ft 296 kts 148°
2026-05-07 17:02 51.15792 -0.73007 13506 ft 294 kts 148°
2026-05-07 17:02 51.14093 -0.71286 13206 ft 292 kts 148°
2026-05-07 17:03 51.12383 -0.69554 12910 ft 291 kts 148°
2026-05-07 17:03 51.10680 -0.67833 12610 ft 289 kts 148°
2026-05-07 17:03 51.08989 -0.66128 12308 ft 286 kts 148°
2026-05-07 17:03 51.07331 -0.64456 12006 ft 278 kts 148°
2026-05-07 17:04 51.05761 -0.62759 11741 ft 269 kts 138°
2026-05-07 17:04 51.04689 -0.60379 11482 ft 262 kts 118°
2026-05-07 17:04 51.03894 -0.57809 11227 ft 256 kts 117°
2026-05-07 17:04 51.03115 -0.55276 10972 ft 256 kts 117°
2026-05-07 17:05 51.02320 -0.52712 10685 ft 261 kts 117°
2026-05-07 17:05 51.01512 -0.50117 10393 ft 263 kts 117°
2026-05-07 17:05 51.00698 -0.47518 10096 ft 263 kts 117°
2026-05-07 17:05 50.99891 -0.44947 9807 ft 264 kts 117°
2026-05-07 17:06 50.98909 -0.42514 9469 ft 263 kts 140°
2026-05-07 17:06 50.97297 -0.41289 9177 ft 259 kts 174°
2026-05-07 17:06 50.95553 -0.41768 8879 ft 258 kts 210°
2026-05-07 17:06 50.94318 -0.43759 8584 ft 257 kts 244°
2026-05-07 17:07 50.94046 -0.46522 8288 ft 258 kts 279°
2026-05-07 17:07 50.94839 -0.49036 7995 ft 260 kts 315°
2026-05-07 17:07 50.96411 -0.50403 7706 ft 261 kts 347°
2026-05-07 17:07 50.98184 -0.50888 7648 ft 256 kts 351°
2026-05-07 17:08 50.99958 -0.51332 7637 ft 257 kts 351°
2026-05-07 17:08 51.01722 -0.51766 7385 ft 257 kts 351°
2026-05-07 17:08 51.03439 -0.52187 7120 ft 250 kts 351°
2026-05-07 17:08 51.05154 -0.52610 6689 ft 251 kts 351°
2026-05-07 17:09 51.06870 -0.53037 6278 ft 247 kts 351°
2026-05-07 17:09 51.08550 -0.53460 5842 ft 242 kts 351°
2026-05-07 17:09 51.10195 -0.53841 5383 ft 236 kts 357°
2026-05-07 17:09 51.11742 -0.53205 4896 ft 232 kts 37°
2026-05-07 17:10 51.12650 -0.51200 4446 ft 224 kts 77°
2026-05-07 17:10 51.12514 -0.48840 4072 ft 213 kts 118°
2026-05-07 17:10 51.11795 -0.46888 3892 ft 198 kts 116°
2026-05-07 17:10 51.11395 -0.44865 3673 ft 189 kts 107°
2026-05-07 17:11 51.11063 -0.42867 3389 ft 188 kts 94°
2026-05-07 17:11 51.11350 -0.40948 3215 ft 173 kts 71°
2026-05-07 17:11 51.11729 -0.39146 3010 ft 169 kts 73°
2026-05-07 17:11 51.12056 -0.37441 2930 ft 154 kts 75°
2026-05-07 17:12 51.12343 -0.35838 2992 ft 146 kts 76°
2026-05-07 17:12 51.12615 -0.34219 3042 ft 167 kts 77°
2026-05-07 17:12 51.12908 -0.32379 3000 ft 168 kts 78°
2026-05-07 17:12 51.12766 -0.30657 2985 ft 163 kts 128°
2026-05-07 17:13 51.11746 -0.29377 3038 ft 215 kts 149°
2026-05-07 17:13 51.10274 -0.28736 2998 ft 224 kts 180°
2026-05-07 17:13 51.08718 -0.28808 2989 ft 228 kts 181°
2026-05-07 17:13 51.07134 -0.28866 2974 ft 229 kts 181°
2026-05-07 17:14 51.05529 -0.28923 2994 ft 231 kts 181°
2026-05-07 17:14 51.03927 -0.28979 3000 ft 230 kts 181°
2026-05-07 17:14 51.02319 -0.29041 2986 ft 229 kts 181°
2026-05-07 17:14 51.00740 -0.29100 3002 ft 225 kts 181°
2026-05-07 17:15 50.99177 -0.29197 2997 ft 225 kts 188°
2026-05-07 17:15 50.97838 -0.30274 2983 ft 214 kts 229°
2026-05-07 17:15 50.97091 -0.32240 2994 ft 203 kts 241°
2026-05-07 17:15 50.96446 -0.34161 2997 ft 192 kts 241°
2026-05-07 17:16 50.95823 -0.36019 3013 ft 190 kts 241°
2026-05-07 17:16 50.95216 -0.37830 3011 ft 188 kts 241°
2026-05-07 17:16 50.94602 -0.39660 2995 ft 188 kts 241°
2026-05-07 17:16 50.93989 -0.41488 2993 ft 188 kts 241°
2026-05-07 17:17 50.93542 -0.43398 2970 ft 187 kts 270°
2026-05-07 17:17 50.94041 -0.45226 3004 ft 189 kts 320°
2026-05-07 17:17 50.95232 -0.46128 3013 ft 195 kts 340°
2026-05-07 17:17 50.96506 -0.46885 2997 ft 195 kts 340°
2026-05-07 17:18 50.97777 -0.47607 2986 ft 193 kts 340°
2026-05-07 17:18 50.99035 -0.48311 2984 ft 190 kts 341°
2026-05-07 17:18 51.00266 -0.48987 2988 ft 189 kts 341°
2026-05-07 17:18 51.01499 -0.49675 2987 ft 187 kts 341°
2026-05-07 17:19 51.02726 -0.50358 2990 ft 187 kts 341°
2026-05-07 17:19 51.03962 -0.51047 3003 ft 190 kts 341°
2026-05-07 17:19 51.05220 -0.51747 3008 ft 193 kts 341°
2026-05-07 17:19 51.06490 -0.52453 3002 ft 193 kts 341°
2026-05-07 17:20 51.07797 -0.52742 2976 ft 191 kts 16°
2026-05-07 17:20 51.08896 -0.51674 3019 ft 186 kts 40°
2026-05-07 17:20 51.09893 -0.50363 3005 ft 187 kts 40°
2026-05-07 17:20 51.10839 -0.48944 2986 ft 188 kts 58°
2026-05-07 17:21 51.11138 -0.46991 3024 ft 182 kts 90°
2026-05-07 17:21 51.11284 -0.44956 3004 ft 186 kts 80°
2026-05-07 17:21 51.11551 -0.42948 2938 ft 191 kts 78°
2026-05-07 17:21 51.11838 -0.40864 2714 ft 193 kts 79°
2026-05-07 17:22 51.12120 -0.38786 2467 ft 192 kts 79°
2026-05-07 17:22 51.12400 -0.36718 2209 ft 190 kts 78°
2026-05-07 17:22 51.12676 -0.34682 1960 ft 186 kts 78°
2026-05-07 17:22 51.12943 -0.32721 1712 ft 177 kts 78°
2026-05-07 17:23 51.13197 -0.30858 1478 ft 168 kts 78°
2026-05-07 17:23 51.13440 -0.29070 1289 ft 162 kts 78°
2026-05-07 17:23 51.13670 -0.27383 1108 ft 148 kts 78°
2026-05-07 17:23 51.13883 -0.25828 877 ft 140 kts 78°
2026-05-07 17:24 51.14085 -0.24341 699 ft 141 kts 78°
2026-05-07 17:24 51.14296 -0.22805 509 ft 142 kts 78°
2026-05-07 17:24 51.14505 -0.21277 325 ft 141 kts 78°
2026-05-07 17:24 51.14706 -0.19803 205 ft 126 kts 78°
2026-05-07 17:25 51.14869 -0.18647 201 ft 86 kts 78°
2026-05-07 17:25 51.14964 -0.18010 210 ft 40 kts 74°
2026-05-07 17:25 51.15012 -0.17603 213 ft 36 kts 78°
2026-05-07 17:25 51.15081 -0.17294 211 ft 24 kts 58°
2026-05-07 17:26 51.15146 -0.17212 208 ft 9 kts 348°
2026-05-07 17:26 51.15175 -0.17236 208 ft 0 kts 326°
2026-05-07 17:27 51.15176 -0.17237 203 ft 0 kts 327°
2026-05-07 17:27 51.15187 -0.17250 211 ft 4 kts 324°
2026-05-07 17:28 51.15220 -0.17287 208 ft 8 kts 324°
2026-05-07 17:28 51.15238 -0.17307 203 ft 0 kts 325°
2026-05-07 17:29 51.15248 -0.17318 210 ft 6 kts 326°
2026-05-07 17:29 51.15318 -0.17356 209 ft 9 kts 348°
2026-05-07 17:29 51.15383 -0.17381 207 ft 10 kts 347°
2026-05-07 17:29 51.15415 -0.17392 213 ft 0 kts 348°
2026-05-07 17:30 51.15432 -0.17395 212 ft 6 kts 358°
2026-05-07 17:30 51.15464 -0.17367 213 ft 4 kts 55°
2026-05-07 17:30 51.15470 -0.17319 208 ft 4 kts 96°
2026-05-07 17:30 51.15452 -0.17279 203 ft 4 kts 136°
2026-05-07 17:31 51.15432 -0.17243 203 ft 4 kts 116°
2026-05-07 17:31 51.15435 -0.17196 203 ft 5 kts 58°
2026-05-07 17:31 51.15457 -0.17165 203 ft 2 kts 36°
2026-05-07 17:31 51.15463 -0.17159 211 ft 0 kts 36°